Location: Newark
(37.9000°S, 166.5167°W)
Time: 07:14:28
(UTC+00:00)

Envisat - Pass Details

Date: 24 January 2020
Orbit: 764 x 766 km, 98.1° (Epoch: 20 February)

Event Time Altitude Azimuth Distance (km) Brightness Sun altitude
Rises 15:35:09 0° 61° (ENE) 3,230 6.7 -7.0°
Reaches altitude 10° 15:38:25 10° 84° (E) 2,314 6.4 -6.4°
Maximum altitude 15:41:12 15° 117° (ESE) 1,998 6.8 -5.9°
Drops below altitude 10° 15:43:59 10° 150° (SSE) 2,329 6.6 -5.5°
Sets 15:47:17 0° 172° (S) 3,266 6.8 -4.9°
